Historical Weather Data

Soule Park Golf Course
1033 East Ojai Ave
Ojai, CA 93023
Date ET
(Inches)
Rain
(Inches)
Temp °F
Humidity
Avg
Wind MPH
Avg
Solar Wm2
Avg
High Ave Low
4/1/18 0.09 0.00 69.9 56.2 49.3 86 1.8 177
4/2/18 0.05 0.00 59.6 54.3 49.2 87 1.8 94
4/3/18 0.14 0.00 70.3 55.7 43.6 83 2.3 263
4/4/18 0.14 0.00 72.4 56.2 46.1 85 2.4 254
4/5/18 0.14 0.00 71.5 58.3 48.6 81 2.1 253
4/6/18 0.16 0.00 74.6 61.7 48.7 73 2.5 256
4/7/18 0.14 0.00 80.6 63.5 53.4 77 2.0 229
4/8/18 0.20 0.00 81.0 64.7 47.5 51 2.5 302
4/9/18 0.24 0.00 93.3 70.0 47.8 36 3.2 305
4/10/18 0.22 0.00 90.9 69.6 50.8 43 2.6 297
4/11/18 0.19 0.00 79.7 62.8 48.1 63 2.4 303
4/12/18 0.20 0.00 69.4 57.0 44.0 45 3.5 315
4/13/18 0.20 0.00 78.8 59.6 38.8 39 2.6 312
4/14/18 0.23 0.00 83.0 64.0 44.0 36 3.0 319
4/15/18 0.15 0.00 76.7 60.7 45.5 48 2.3 223
4/16/18 0.17 0.00 63.0 52.4 42.2 66 5.2 316
4/17/18 0.20 0.00 71.2 54.3 36.6 50 3.0 326
4/18/18 0.20 0.00 73.8 56.0 38.5 52 2.8 315
4/19/18 0.18 0.01 68.5 56.4 42.2 57 3.4 321
4/20/18 0.20 0.00 76.6 59.9 42.2 56 2.7 327
4/21/18 0.21 0.00 89.3 66.7 43.4 48 2.2 308
4/22/18 0.23 0.00 84.9 67.8 49.7 49 2.5 328
4/23/18 0.21 0.00 82.3 63.3 48.1 68 2.3 327
4/24/18 0.18 0.00 79.4 60.3 47.7 73 2.2 296
4/25/18 0.20 0.00 79.9 59.7 45.6 68 2.1 324
4/26/18 0.19 0.00 74.2 57.6 43.6 75 2.4 331
4/27/18 0.15 0.00 71.3 56.6 45.8 79 2.2 276
4/28/18 0.20 0.00 76.6 60.1 43.8 68 2.6 334
4/29/18 0.17 0.00 70.2 57.7 44.6 73 2.7 301
4/30/18 0.08 0.00 64.9 55.3 44.9 77 1.9 131